Regional Weather Roundup
Issued by NWS Green Bay, WI

Home | Current Version | Previous Version | Graphics & Text | Print | Product List | Glossary Off
Versions: 1 2 3 4 5 6 7 8 9 10 11 12 13 14 15 16 17 18 19 20 21 22 23 24 25 26 27 28 29 30 31 32 33 34 35 36 37 38 39 40 41 42 43 44 45 46 47 48 49 50

000
ASUS43 KGRB 271610
RWRGRB

NORTH-CENTRAL AND NORTHEAST WISCONSIN REGIONAL WEATHER ROUNDUP
NATIONAL WEATHER SERVICE GREEN BAY WI
1100 AM CDT MON APR 27 2015

WIZ005-009-010>012-018-019-271700-
NORTH CENTRAL WISCONSIN

CITY           SKY/WX    TMP DP  RH WIND       PRES   REMARKS
IRONWOOD       SUNNY     52  30  43 N7        30.18S
MANITOWISH WTR SUNNY     53  29  41 NW9G16    30.18S
ARBOR VITAE    SUNNY     56  31  38 N20       30.16S
EAGLE RIVER    SUNNY     54  25  32 N15G21    30.15R
LAND O LAKES   SUNNY     53  28  38 N12G20    30.16S
RHINELANDER    SUNNY     54  29  38 VRB7      30.15F
PHILLIPS       SUNNY     55  30  38 N10       30.18S
ANTIGO         SUNNY     54  32  43 N16       30.14S
TOMAHAWK       SUNNY     55  29  37 N6        30.16F
MERRILL        SUNNY     55  31  39 N10       30.15S
$$

WIZ013-073-271700-
NORTHEAST WISCONSIN

CITY           SKY/WX    TMP DP  RH WIND       PRES   REMARKS
IRON MOUNTAIN  MOSUNNY   54  31  41 N15G25    30.12F
MARINETTE      SUNNY     50  32  50 E6        30.12F
OCONTO         SUNNY     54  33  45 N15G21    30.11F
$$

WIZ017-030-035>037-045-271700-
CENTRAL WISCONSIN

CITY           SKY/WX    TMP DP  RH WIND       PRES   REMARKS
MEDFORD        SUNNY     55  31  40 N13       30.17S
WAUSAU         SUNNY     56  29  35 N9        30.13F
MOSINEE        SUNNY     54  30  40 N12       30.16S
MARSHFIELD     SUNNY     57  32  38 NW12      30.17S
WISC RAPIDS    SUNNY     57  28  33 N12       30.18S
STEVENS POINT  SUNNY     54  29  38 W8        30.16S
WAUPACA        SUNNY     57  30  35 NE8       30.15S
SHAWANO        SUNNY     57  32  38 NE6       30.13S
CLINTONVILLE   SUNNY     55  30  38 N10G16    30.13S
$$

WIZ038-039-048-051-271700-
FOX VALLEY

CITY           SKY/WX    TMP DP  RH WIND       PRES   REMARKS
NWS GREEN BAY  SUNNY     54  36  50 NE13      30.14R
APPLETON       MOSUNNY   52  32  46 N12       30.14R
OSHKOSH        SUNNY     55  34  45 N9G21     30.14R
FOND DU LAC    SUNNY     53  33  46 E5        30.15R
$$

WIZ022-050-052-271700-
EAST CENTRAL WISCONSIN

CITY           SKY/WX    TMP DP  RH WIND       PRES   REMARKS
STURGEON BAY   SUNNY     48  34  57 N15       30.14F
MANITOWOC      MOSUNNY   52  35  52 NE10      30.13R
SHEBOYGAN      CLOUDY    53  34  48 N20G26    30.12R
$$

LMZ563-521-522-541>543-271700-
LAKESHORE

STATION/POSITION TIME  TEMP    WIND        PRES    VSBY  WAVE
                       AIR SEA DIR/SP/G                  HT/PER
                 (UTC) (F)     (DEG/KT/KT) (MB)    (MI)  (FT/S)
SHEBOYGAN LKSHOR 1600   42      40/ 13/ 14 1021.2R
KEWAUNEE LKSHORE 1600   45      50/  9/ 12 1019.3S
NORTHPORT PIER   1600   41     320/  6/  8 1020.7S
SISTER BAY LKSHO 1500   45     360/ 11/ 14   N/A
CHAMBERS ISLAND  1600   43      30/ 11/ 12 1020.7S
MENOMINEE LKSHOR 1600   44      60/ 11/ 12 1020.8F
$$



USA.gov is the U.S. government's official web portal to all federal, state and local government web resources and services.